星链-2143 (STARLINK-2143 )

导读

STARLINK-2143是美国SpaceX星链(Starlink)星座的卫星,由SpaceX自主研发制造,于2021年3月4日发射升空,卫星平台为Starlink v1.5。该卫星运行在近地轨道,轨道倾角约53度,为全球提供高速低延迟卫星互联网服务,重点覆盖地面网络难以抵达的偏远区域。它属于星链大规模低轨星座部署的一部分,目前仍保持在轨工作状态。星链项目在推进全球互联的同时,也引发了对太空资源拥挤和天文观测影响的争议。

Basic Information
目录编号:
47733
目录名称:
STARLINK-2143
国际标识:
2021-017M
轨道中心:
EARTH
卫星名称:
星链-2143
卫星全名:
星链-2143 (STARLINK-2143 )
卫星状态:
在轨 (已飞行2010 天)
发射日期:
2021-03-04 UTC
国别 :
美国 (US)
星等 :
--
Orbit Information
数据来源 国际轨道数据 AOE轨道数据
星历时间 2026-09-04T12:16:59+0800
14小时前
查看轨道信息
2026-09-01T22:00:00+0800
3天前
查看轨道信息
半长轴 6848.843km 6848.874km
偏心率 0.0001206 0.0001222
轨道倾角 53.158° 53.161°
近地点辐角 98.600° 91.590°
升交点赤经 106.066° 118.148°
平近点角 261.514° 350.705°
近地点 469.88km 469.9km
远地点 471.532km 471.574km
周期 94.012分钟 94.013分钟
每日圈数 15.317116 15.317012
Detailed Information
固有亮度:
5
最大亮度:
2.5
卫星平台:
Starlink V1.0
覆盖范围:
全球
运营商:
太空探索技术公司
运营商所在国:
美国
制造商(研发单位):
太空探索技术公司
制造商所在国:
美国
使用方式:
暂无
Satellite Introduction
星链(Starlink)计划是由太空探索技术公司(SpaceX)提出的一个巨型低轨卫星互联网星座项目,计划在2019年至2024年间在太空搭建由约1.2万颗卫星组成的“星链”网络,其中1584颗将部署在地球上空550千米处的近地轨道,并从2020年开始工作。该卫星仍在工作。
2D Orbit Map
3D Orbit Map
Orbit Altitude Analysis Chart
Orbit Inclination Analysis Chart
Orbit Comprehensive Analysis Chart
View Comprehensive Chart
Conjunction Data List
Event ID Objects TCA Miss Dist (km) Collision Risk Probability Collision Risk Index (CRI) Action
CDM_260905-234604-773306-830921
2026-09-05T
23:46:56+0000
2.615 km
极远距离
1.341276E-6 低风险 0.38
CDM_260905-012904-773306-539421
2026-09-05T
01:29:51+0000
2.619 km
极远距离
9.556911E-7 极低风险 0.35